Regional Weather Roundup
Issued by NWS Charleston, SC

Current Version | Previous Version | Text Only | Print | Product List | Glossary Off
Versions: 1 2 3 4 5 6 7 8 9 10 11 12 13 14 15 16 17 18 19 20 21 22 23 24 25 26 27 28 29 30 31 32 33 34 35 36 37 38 39 40 41 42 43 44 45 46 47 48 49 50

000
ASUS42 KCHS 031612
RWRCHS

REGIONAL WEATHER ROUNDUP
NATIONAL WEATHER SERVICE CHARLESTON SC
1200 PM EDT THU SEP 03 2015

NOTE: "FAIR" INDICATES FEW OR NO CLOUDS BELOW 12,000 FEET WITH NO
SIGNIFICANT WEATHER AND/OR OBSTRUCTIONS TO VISIBILITY.

NOT ALL STATIONS ARE QUALITY CONTROLLED BY THE NATIONAL
WEATHER SERVICE. USE DATA WITH CAUTION...ESPECIALLY
DEWPOINT OBSERVATIONS.

SCZ027-030-031-034>040-042>050-031700-
...SOUTHEAST SOUTH CAROLINA...

CITY           SKY/WX    TMP DP  RH WIND       PRES   REMARKS
N CHARLESTON   MOSUNNY   86  72  62 SW5       29.96F HX  92
WATERFRONT PRK   N/A     85  75  71 VRB2      29.95F HX  93
MOUNT PLEASANT LGT RAIN  86  73  66 SW5       29.96F HX  93
JOHNS ISLAND   FAIR      84  77  79 SE9       29.97F HX  94
PINOPOLIS        N/A     90  75  62 CALM      29.88F HX 100
MONCKS CORNER  FAIR      90  72  55 CALM      29.96F HX  96
SUMMERVILLE    FAIR      88  72  58 W3        29.97F HX  94
BEAUFORT MCAS  PTSUNNY   87  75  67 N7        29.97F HX  96
BEAUFORT ARPT  FAIR      84  77  79 CALM      29.97S HX  94
HILTON HEAD IS MOSUNNY   84  77  79 N8        29.98F HX  94
WALTERBORO     MOSUNNY   90  70  51 NW3       29.97F HX  95
ALLENDALE      FAIR      86  73  66 CALM      29.97S HX  93

...SOUTHERN MIDLANDS AND PEE DEE...

CITY           SKY/WX    TMP DP  RH WIND       PRES   REMARKS
GEORGETOWN     NOT AVBL
KINGSTREE      NOT AVBL
ORANGEBURG     MOSUNNY   88  70  55 NW5       29.97F HX  93
BARNWELL       FAIR      90  73  58 NW6       29.98S HX  98
AIKEN          FAIR      84  68  58 NW5       30.02F
MANNING        FAIR      86  68  54 CALM      29.97S
COLUMBIA       PTSUNNY   88  69  53 W3        29.96F HX  92
SUMTER         PTSUNNY   87  71  60 NW7       29.95F HX  92
FLORENCE       PTSUNNY   86  73  65 VRB3      29.96F HX  93
MYRTLE BEACH   PTSUNNY   86  73  66 S5        29.97F HX  93
N MYRTLE BEACH PTSUNNY   85  75  72 S9        29.95S HX  93

$$

GAZ063-065-086>088-099>101-113>116-118-119-134>141-150-031700-
...SOUTHEAST GEORGIA...

CITY           SKY/WX    TMP DP  RH WIND       PRES   REMARKS
SAVANNAH ARPT  PTSUNNY   84  74  71 N9        29.97F HX  91
HUNTER AAF     PTSUNNY   84  79  84 N8        29.95S HX  96
FORT STEWART   PTSUNNY   84  76  76 N2        29.96F HX  93
STATESBORO     PTSUNNY   85  77  77 N6        29.98F HX  96
SYLVANIA       NOT AVBL
CLAXTON        NOT AVBL

...CSRA...CENTRAL AND FAR SOUTHEAST GEORGIA...

CITY           SKY/WX    TMP DP  RH WIND       PRES   REMARKS
THOMSON        CLOUDY    85  76  73 CALM      30.03F HX  95
AUGUSTA-BUSH   CLOUDY    87  74  64 NW3       29.96F HX  95
AUGUSTA-DANIEL CLOUDY    86  72  62 W3        29.99F HX  92
SWAINSBORO     CLOUDY    82  73  74 NW3       30.01S
VIDALIA        CLOUDY    82  73  74 CALM      30.00F
EASTMAN        FAIR      86  75  69 CALM      30.02F HX  95
HAZLEHURST     FAIR      87  77  72 CALM      29.99F HX  99
ALMA           PTSUNNY   85  74  69 NW6       29.99F HX  92
WAYCROSS       PTSUNNY   88  80  75 N7        29.99F HX 104
JESUP          FAIR      88  77  70 N7        29.98F HX 100
BAXLEY         FAIR      86  77  74 N7        29.98F HX  97
BRUNSWICK      PTSUNNY   82  73  74 N8        29.98S
SAINT SIMONS   PTSUNNY   83  76  79 NW7       29.97R HX  91

$$

SCZ027-028-034-036>038-045-046-048>050-GAZ119-141-031700-
...LAKE AND SUPPLEMENTAL COASTAL OBSERVATIONS...

STATION/POSITION TIME  TEMP    WIND        PRES    WAVE   SWELL
                       AIR SEA DIR/SP/G            HT/PER HT/PER/DIR
                 (UTC) (F)     (DEG/KT/KT) (MB)    (FT/S) (FT/S/D)
UPR LAKE MARION  NOT AVBL
WINYAH BAY       NOT AVBL
LAKE MURRAY      1500   83     260/  2/  3 1014.9R
ACE BASIN NERRS  NOT AVBL
FORT PULASKI     1500          360/  7/  9 1015.3F
SAPELO ISLAND    1500   79     320/ 11     1015.0S

$$

ANZ835-935-AMZ111-154-330-350-352-354-370-450-454-472-031700-
...C-MAN AND BUOY OBSERVATIONS...

STATION/POSITION TIME  TEMP    WIND        PRES    WAVE   SWELL
                       AIR SEA DIR/SP/G            HT/PER HT/PER/DIR
                 (UTC) (F)     (DEG/KT/KT) (MB)    (FT/S) (FT/S/D)
BUOY 41004       1550   79 84  230/ 12/ 14 1014.8F   2/ 8   2/ 8
BUOY 41008       1550   80 84  350/ 12/ 14 1014.1R   2/ 4   2/110/ 6
FOLLY BEACH CMAN 1500   83     180/  2/  3 1015.5S
CAPERS NEARSHORE 1508   82     230/  8/ 10 1015.3R
FRIPP NEARSHORE  1500   81      20/ 10/ 12 1014.8S


STATION/POSITION TIME  TEMP    WIND        PRES    WAVE   SWELL
                       AIR SEA DIR/SP/G            HT/PER HT/PER/DIR
                 (UTC) (F)     (DEG/KT/KT) (MB)    (FT/S) (FT/S/D)
5E ST. MARYS GA  1521      85                N/A     2/ 9
FRYING PAN BUOY  1550   82 82  220/  8/ 10 1014.7S   2/ 8   2/100/ 8
BUOY 41025       1550   80 85  330/  4/  6 1013.9R   1/13   2/ 60/13
CAPE LOOKOUT NC  1500   78      90/  4/  5 1013.9R
BUOY 41002       1550   84 84  300/  6/  6 1014.5R   2/13   2/ 80/13
BUOY 41010       1520   83 86  230/ 12/ 14 1015.4R
ST AUGUSTINE FL  1600   85 82  320/  8/ 10 1015.6F


$$



USA.gov is the U.S. government's official web portal to all federal, state and local government web resources and services.